Tracking 34352 objects as of 8-Jun-2026
HD Live streaming from Space Station
objects crossing your sky now

HONGYAN 1

Track HONGYAN 1 now!
10-day predictions


NORAD ID: 43914
Int'l Code: 2018-112F
Perigee: 1,097.2 km
Apogee: 1,107.3 km
Inclination: 50.0 °
Period: 107.2 minutes
Semi major axis: 7473 km
RCS: Unknown
Launch date: December 29, 2018
Source: People's Republic of China (PRC)
Launch site: Jiuquan Satellite Launch Center, China (JSC)
Your satellite tracking list
Your tracking list is empty




NASA's NSSDC Master Catalog

Two Line Element Set (TLE):
1 43914U 18112F   26158.57069281 -.00000089  00000-0  69568-4 0  9990
2 43914  50.0091 272.3837 0006767 226.4397 133.5921 13.43820270365243
Source of the keplerian elements: AFSPC